LOG23CG EGJJ-EGTE

Flight info

Callsign LOG23CG
Flight time N/A
Altitude 10000
Route SKERY L22 EMWIP P16 FIMCA N22 BHD DCT DAWLY
Aircraft AT76/M-SDFGIRY/S

Departure

Time N/A
Airport Jersey Airport (EGJJ)

Arrival

Time 2026-04-24 18:58
Airport Exeter International Airport (EGTE)
Time Latitude Longitude Altitude Speed Heading
2026-04-24 18:54 50.71860 -3.60730 2101 ft 158 kts 101°
2026-04-24 18:55 50.71664 -3.57287 1756 ft 154 kts 92°
2026-04-24 18:55 50.71662 -3.55621 1561 ft 150 kts 90°
2026-04-24 18:55 50.71723 -3.53987 1375 ft 149 kts 88°
2026-04-24 18:56 50.71815 -3.52367 1178 ft 148 kts 86°
2026-04-24 18:56 50.71937 -3.50752 993 ft 149 kts 82°
2026-04-24 18:56 50.72189 -3.49163 823 ft 150 kts 76°
2026-04-24 18:56 50.72478 -3.47691 757 ft 131 kts 76°
2026-04-24 18:57 50.72694 -3.46340 623 ft 126 kts 79°
2026-04-24 18:57 50.72879 -3.45003 461 ft 124 kts 82°
2026-04-24 18:57 50.73069 -3.43680 308 ft 124 kts 78°
2026-04-24 18:57 50.73268 -3.42438 117 ft 109 kts 80°
2026-04-24 18:58 50.73400 -3.41575 102 ft 27 kts 76°
2026-04-24 18:58 50.73391 -3.41419 100 ft 12 kts 122°
2026-04-24 18:58 50.73356 -3.41332 102 ft 7 kts 123°
2026-04-24 18:58 50.73330 -3.41271 103 ft 11 kts 124°
2026-04-24 18:59 50.73270 -3.41124 104 ft 17 kts 130°
2026-04-24 18:59 50.73205 -3.41172 106 ft 14 kts 263°
2026-04-24 18:59 50.73205 -3.41353 105 ft 20 kts 273°
2026-04-24 18:59 50.73217 -3.41598 103 ft 25 kts 277°
2026-04-24 19:00 50.73199 -3.41734 105 ft 1 kts 168°
2026-04-24 19:00 50.73195 -3.41726 106 ft 2 kts 129°
2026-04-24 19:00 50.73175 -3.41689 108 ft 0 kts 130°